Flag for U.S.A. Weather past 2 weeks in South Bend, Indiana, U.S.A.

Now
32 °F

Clear.


Feels Like: 32 °F
Forecast: 35 / 55 °F
Wind: No wind

Location: Michiana Regional Airport

Current Time: Oct 22, 2014 at 9:10:53 AM

Latest Report: Oct 22, 2014 at 7:54 AM


Visibility: 8 mi

Pressure: 30.36 "Hg

Humidity: 88%

Dew point: 29 °F

Location of South BendLocation

Historic Weather in South Bend — Graph

°F

South Bend temperature yesterday

Maximum temperature yesterday: 54 °F (at 12:54 PM)
Minimum temperature yesterday: 38 °F (at 10:54 PM)
Average temperature yesterday: 48 °F

Past Weeks' High & Low Weather Summary

 TemperatureHumidityPressure
High74 °F (Oct 13, 3:54 PM)100% (Oct 10, 10:54 AM)30.36 "Hg (Oct 10, 10:54 AM)
Low32 °F (Oct 19, 7:54 AM)27% (Oct 8, 2:54 PM)29.51 "Hg (Oct 14, 1:54 PM)
Average53 °F77%29.91 "Hg
* Reported Oct 7 7:54 AM — Oct 22 7:54 AM, South Bend, Weather by CustomWeather, © 2014

Note: Actual official high and low records may vary slightly from our data, if they occured in-between our weather recording intervals... More about our weather records

Advertising

South Bend weather history for previous 24 hours

 ConditionsComfort  
Time TempWeatherWind HumidityBarometerVisibility
7:54 AM
Oct 22
32 °FClear.No wind88%30.36 "Hg8 mi
6:54 AM33 °FClear.No wind85%30.35 "Hg10 mi
5:54 AM33 °FClear.3 mph88%30.33 "Hg9 mi
4:54 AM34 °FClear.No wind88%30.31 "Hg10 mi
3:54 AM35 °FClear.No wind88%30.30 "Hg10 mi
2:54 AM36 °FClear.No wind85%30.28 "Hg10 mi
1:54 AM35 °FClear.No wind88%30.27 "Hg10 mi
12:54 AM36 °FClear.No wind85%30.26 "Hg10 mi
11:54 PM
Oct 21
38 °FClear.No wind90%30.27 "Hg10 mi
10:54 PM38 °FClear.No wind83%30.27 "Hg10 mi
9:54 PM40 °FClear.3 mph80%30.26 "Hg10 mi
8:54 PM44 °FPassing clouds.5 mph73%30.24 "Hg10 mi
7:54 PM49 °FOvercast.8 mph64%30.22 "Hg10 mi
6:54 PM49 °FOvercast.10 mph66%30.19 "Hg10 mi
5:54 PM50 °FOvercast.9 mph61%30.18 "Hg10 mi
4:54 PM50 °FOvercast.12 mph68%30.16 "Hg10 mi
3:54 PM51 °FMostly cloudy.15 mph66%30.15 "Hg10 mi
2:54 PM53 °FOvercast.13 mph64%30.13 "Hg10 mi
1:54 PM53 °FOvercast.15 mph64%30.13 "Hg10 mi
12:54 PM54 °FBroken clouds.13 mph72%30.13 "Hg10 mi
11:54 AM51 °FPartly sunny.13 mph77%30.12 "Hg10 mi
10:54 AM50 °FMostly cloudy.10 mph80%30.11 "Hg10 mi
10:03 AM49 °FMore clouds than sun.9 mph84%30.09 "Hg10 mi
9:54 AM49 °FMostly cloudy.10 mph86%30.09 "Hg10 mi
Weather by CustomWeather, © 2014

See weather overviewHow to use our weather pages